Location: Laura�t
(43.9341°N, 0.2497°E)
Time: 23:42:40
(UTC+00:00)

ASTEX 1 - Pass Details

Date: 03 March 2021
Orbit: 720 x 743 km, 92.7° (Epoch: 17 April)

Event Time Altitude Azimuth Distance (km) Brightness Sun altitude
Rises 19:21:23 0° 12° (NNE) 3,148 6.6 -17.2°
Reaches altitude 10° 19:23:49 10° 20° (NNE) 2,220 5.8 -17.6°
Maximum altitude 19:28:26 41° 90° (E) 1,048 3.7 -18.4°
Enters shadow 19:30:15 29° 137° (SE) 1,302 4.3 -18.8°
